Weather History for Harbor Springs, MI

Change the Weather History Date:

Thursday, January 16, 2014

  Actual Average (KPLN) Record (KPLN)
Temperature  
Mean Temperature 21 °F -  
Max Temperature 24 °F 25 °F 48 °F (1949)
Min Temperature 18 °F 6 °F -23 °F (1966)
Degree Days  
Heating Degree Days 44    
Moisture  
Dew Point 17 °F    
Average Humidity 82    
Maximum Humidity 93    
Minimum Humidity 75    
Precipitation  
Precipitation 0.00 in - - ()
Sea Level Pressure  
Sea Level Pressure 29.57 in    
Wind  
Wind Speed 8 mph (SE)    
Max Wind Speed 14 mph    
Max Gust Speed 23 mph    
Visibility 7 miles    
Events Snow    
Averages and records for this station are not official NWS values.
T = Trace of Precipitation, MM = Missing Value Source: NWS Daily Summary

Daily Weather History Graph

Daily Weather History Graph

Search for Another Location

Airport:

Trip Planner

Search our weather history database for the weather conditions in past years. The results will help you decide how hot, cold, wet, or windy it might be!

Date:

Astronomy

Jan. 16, 2014 Rise Set
Actual Time 8:15 AM EST 5:24 PM EST
Civil Twilight 7:42 AM EST 5:57 PM EST
Nautical Twilight 7:05 AM EST 6:33 PM EST
Astronomical Twilight 6:30 AM EST 7:09 PM EST
Moon 6:20 PM EST (1/16) 8:03 AM EST (1/16)
Length of Visible Light 10h 15m
Length of Day
9h 09m
Full, 100% of the Moon is Illuminated
Jan 16
Full
Jan 24
Last Quarter
Jan 30
New
Feb 6
First Quarter
Feb 14
Full

Hourly Weather History & Observations

Time (EST) Temp. Windchill Dew Point Humidity Pressure Visibility Wind Dir Wind Speed Gust Speed Precip Events Conditions
12:15 AM 18.5 °F 9.3 °F 12.9 °F 79% 29.72 in 10.0 mi SSW 6.9 mph - N/A   Overcast
12:34 AM 18.5 °F 6.8 °F 12.7 °F 78% 29.72 in 10.0 mi SSW 10.4 mph 17.3 mph N/A Snow Light Snow
12:55 AM 18.5 °F 6.1 °F 12.9 °F 79% 29.72 in 10.0 mi South 11.5 mph 19.6 mph N/A Snow Light Snow
1:15 AM 18.5 °F 6.8 °F 12.9 °F 79% 29.72 in 10.0 mi SSW 10.4 mph 16.1 mph N/A   Overcast
1:35 AM 18.5 °F 8.4 °F 13.1 °F 79% 29.70 in 10.0 mi SSW 8.1 mph 16.1 mph N/A   Overcast
1:55 AM 18.7 °F 7.8 °F 13.3 °F 79% 29.69 in 10.0 mi South 9.2 mph 20.7 mph N/A Snow Light Snow
2:14 AM 18.5 °F 6.8 °F 13.1 °F 79% 29.69 in 10.0 mi SSW 10.4 mph 16.1 mph N/A Snow Light Snow
2:35 AM 19.0 °F 9.0 °F 13.3 °F 78% 29.67 in 10.0 mi South 8.1 mph 20.7 mph N/A   Overcast
2:55 AM 19.2 °F 10.2 °F 13.6 °F 79% 29.66 in 10.0 mi South 6.9 mph - N/A   Overcast
3:14 AM 19.2 °F 9.3 °F 13.6 °F 79% 29.66 in 10.0 mi South 8.1 mph - N/A   Overcast
3:35 AM 19.4 °F 11.5 °F 14.0 °F 80% 29.65 in 7.0 mi South 5.8 mph - N/A Snow Light Snow
3:55 AM 19.4 °F 11.5 °F 14.4 °F 81% 29.64 in 7.0 mi South 5.8 mph - N/A Snow Light Snow
4:14 AM 19.9 °F 12.1 °F 14.7 °F 80% 29.62 in 10.0 mi South 5.8 mph - N/A Snow Light Snow
4:35 AM 19.9 °F 11.1 °F 15.1 °F 81% 29.61 in 3.0 mi South 6.9 mph - N/A Snow Light Snow
4:55 AM 19.8 °F 10.8 °F 15.8 °F 85% 29.59 in 2.5 mi South 6.9 mph - N/A Snow Light Snow
5:14 AM 19.4 °F 14.3 °F 16.2 °F 87% 29.58 in 2.0 mi South 3.5 mph - N/A Snow Light Snow
5:35 AM 19.9 °F 13.4 °F 16.3 °F 86% 29.57 in 4.0 mi SSE 4.6 mph - N/A Snow Light Snow
5:55 AM 19.9 °F 11.1 °F 15.6 °F 83% 29.57 in 5.0 mi SSE 6.9 mph - N/A Snow Light Snow
6:14 AM 19.9 °F 14.9 °F 15.6 °F 83% 29.56 in 5.0 mi South 3.5 mph - N/A Snow Light Snow
6:35 AM 19.9 °F 11.1 °F 15.4 °F 83% 29.55 in 7.0 mi South 6.9 mph - N/A   Overcast
6:55 AM 20.1 °F 11.3 °F 15.1 °F 81% 29.54 in 10.0 mi South 6.9 mph - N/A Snow Light Snow
7:14 AM 19.9 °F 8.6 °F 14.7 °F 80% 29.54 in 10.0 mi South 10.4 mph 16.1 mph N/A   Mostly Cloudy
7:35 AM 20.3 °F 9.0 °F 14.5 °F 78% 29.54 in 10.0 mi South 10.4 mph 17.3 mph N/A   Mostly Cloudy
7:55 AM 21.2 °F 9.5 °F 14.9 °F 77% 29.53 in 10.0 mi South 11.5 mph 18.4 mph N/A   Overcast
8:14 AM 21.2 °F 8.3 °F 14.7 °F 76% 29.53 in 10.0 mi South 13.8 mph 20.7 mph N/A   Overcast
8:35 AM 21.2 °F 8.9 °F 14.7 °F 76% 29.53 in 7.0 mi South 12.7 mph 23.0 mph N/A   Overcast
8:55 AM 21.2 °F 8.9 °F 14.9 °F 77% 29.54 in 10.0 mi South 12.7 mph 19.6 mph N/A   Overcast
9:14 AM 21.0 °F 10.6 °F 14.9 °F 77% 29.54 in 7.0 mi South 9.2 mph 20.7 mph N/A   Overcast
9:35 AM 20.8 °F 8.4 °F 14.7 °F 77% 29.54 in 10.0 mi South 12.7 mph 19.6 mph N/A   Overcast
9:55 AM 20.8 °F 10.4 °F 14.9 °F 78% 29.54 in 7.0 mi SSE 9.2 mph 17.3 mph N/A   Overcast
10:14 AM 21.0 °F 10.6 °F 15.4 °F 79% 29.54 in 10.0 mi South 9.2 mph 18.4 mph N/A   Overcast
10:35 AM 21.2 °F 11.7 °F 15.4 °F 78% 29.54 in 10.0 mi SSE 8.1 mph - N/A   Overcast
10:55 AM 21.2 °F 11.7 °F 15.4 °F 78% 29.54 in 10.0 mi SSE 8.1 mph 17.3 mph N/A   Overcast
11:15 AM 21.2 °F 10.1 °F 14.9 °F 77% 29.54 in 10.0 mi SSE 10.4 mph 18.4 mph N/A   Overcast
11:35 AM 21.6 °F 12.1 °F 15.1 °F 76% 29.53 in 10.0 mi South 8.1 mph 17.3 mph N/A   Overcast
11:55 AM 21.9 °F 10.4 °F 15.6 °F 77% 29.53 in 10.0 mi SSE 11.5 mph 17.3 mph N/A   Overcast
12:15 PM 22.1 °F 10.6 °F 15.6 °F 76% 29.53 in 10.0 mi SSE 11.5 mph 16.1 mph N/A   Overcast
12:35 PM 22.3 °F 13.9 °F 15.8 °F 76% 29.52 in 10.0 mi SSE 6.9 mph - N/A   Overcast
12:55 PM 22.6 °F 15.3 °F 16.0 °F 76% 29.51 in 10.0 mi South 5.8 mph - N/A   Overcast
1:15 PM 23.5 °F 16.4 °F 16.7 °F 75% 29.51 in 10.0 mi SSE 5.8 mph - N/A   Overcast
1:35 PM 23.5 °F 14.5 °F 17.1 °F 76% 29.51 in 10.0 mi SSE 8.1 mph - N/A   Overcast
1:54 PM 23.5 °F 17.6 °F 17.2 °F 77% 29.51 in 10.0 mi SSE 4.6 mph - N/A   Overcast
2:15 PM 23.5 °F 17.6 °F 17.6 °F 78% 29.51 in 10.0 mi SSE 4.6 mph - N/A   Overcast
2:35 PM 23.7 °F 17.8 °F 18.0 °F 79% 29.51 in 10.0 mi SE 4.6 mph - N/A   Overcast
2:54 PM 23.9 °F 15.8 °F 18.1 °F 79% 29.51 in 10.0 mi SE 6.9 mph - N/A   Overcast
3:15 PM 24.1 °F 18.2 °F 18.7 °F 80% 29.51 in 7.0 mi SSE 4.6 mph - N/A Snow Light Snow
3:35 PM 23.7 °F 17.8 °F 19.0 °F 82% 29.51 in 2.0 mi SE 4.6 mph - N/A Snow Light Snow
3:54 PM 23.5 °F 19.1 °F 20.5 °F 88% 29.51 in 0.8 mi SE 3.5 mph - N/A Snow Light Snow
4:15 PM 23.5 °F 19.1 °F 20.7 °F 89% 29.51 in 1.5 mi SE 3.5 mph - N/A Snow Light Snow
4:35 PM 23.5 °F 16.4 °F 20.3 °F 87% 29.51 in 3.0 mi SE 5.8 mph - N/A Snow Light Snow
4:54 PM 23.9 °F 16.8 °F 19.9 °F 85% 29.52 in 5.0 mi ESE 5.8 mph - N/A Snow Light Snow
5:15 PM 23.7 °F 16.6 °F 19.9 °F 85% 29.52 in 7.0 mi East 5.8 mph - N/A   Overcast
5:35 PM 23.7 °F 17.8 °F 19.2 °F 83% 29.53 in 10.0 mi East 4.6 mph - N/A   Overcast
5:54 PM 23.7 °F 17.8 °F 19.0 °F 82% 29.53 in 10.0 mi East 4.6 mph - N/A   Overcast
6:15 PM 23.9 °F 16.8 °F 19.0 °F 82% 29.54 in 10.0 mi ESE 5.8 mph - N/A   Overcast
6:35 PM 23.9 °F 16.8 °F 19.4 °F 83% 29.54 in 7.0 mi SE 5.8 mph - N/A   Overcast
6:54 PM 23.7 °F 19.3 °F 19.8 °F 85% 29.54 in 7.0 mi ESE 3.5 mph - N/A   Overcast
7:15 PM 23.5 °F 17.6 °F 20.1 °F 87% 29.54 in 7.0 mi East 4.6 mph - N/A   Overcast
7:35 PM 23.5 °F 16.4 °F 20.3 °F 87% 29.55 in 5.0 mi East 5.8 mph - N/A Snow Light Snow
7:54 PM 23.5 °F 16.4 °F 20.8 °F 89% 29.55 in 4.0 mi East 5.8 mph - N/A Snow Light Snow
8:15 PM 23.5 °F 17.6 °F 21.0 °F 90% 29.55 in 4.0 mi East 4.6 mph - N/A Snow Light Snow
8:35 PM 23.4 °F 15.2 °F 21.0 °F 91% 29.55 in 2.5 mi ENE 6.9 mph - N/A Snow Light Snow
8:54 PM 23.0 °F 14.7 °F 21.0 °F 92% 29.56 in 1.8 mi ENE 6.9 mph - N/A Snow Light Snow
9:15 PM 23.2 °F 15.0 °F 21.2 °F 92% 29.56 in 1.8 mi ENE 6.9 mph - N/A Snow Light Snow
9:35 PM 22.6 °F 14.3 °F 20.5 °F 91% 29.56 in 2.0 mi ENE 6.9 mph - N/A Snow Light Snow
9:54 PM 22.6 °F 14.3 °F 20.7 °F 92% 29.56 in 2.5 mi ENE 6.9 mph - N/A Snow Light Snow
10:15 PM 21.9 °F 14.5 °F 19.8 °F 91% 29.56 in 5.0 mi ENE 5.8 mph - N/A Snow Light Snow
10:35 PM 21.2 °F 14.9 °F 19.4 °F 93% 29.56 in 5.0 mi NE 4.6 mph - N/A   Overcast
10:54 PM 21.2 °F 14.9 °F 19.4 °F 93% 29.56 in 5.0 mi NE 4.6 mph - N/A   Overcast
11:15 PM 21.0 °F 14.6 °F 19.0 °F 92% 29.56 in 7.0 mi NE 4.6 mph - N/A   Scattered Clouds
11:34 PM 19.4 °F 11.5 °F 17.1 °F 91% 29.56 in 7.0 mi NE 5.8 mph - N/A   Scattered Clouds
11:55 PM 21.2 °F 13.6 °F 19.0 °F 91% 29.56 in 7.0 mi NE 5.8 mph - N/A   Overcast